CDT,Max TemperatureF,Mean TemperatureF,Min TemperatureF,Max Dew PointF,MeanDew PointF,Min DewpointF,Max Humidity, Mean Humidity, Min Humidity, Max Sea Level PressureIn, Mean Sea Level PressureIn, Min Sea Level PressureIn, Max VisibilityMiles, Mean VisibilityMiles, Min VisibilityMiles, Max Wind SpeedMPH, Mean Wind SpeedMPH, Max Gust SpeedMPH,PrecipitationIn, CloudCover, Events, WindDirDegrees
2012-3-1,34,29,24,27,23,19,88,80,72,29.82,29.73,29.64,10,7,0,21,7,25,0.01,8,Fog-Snow,184
2012-3-2,30,24,18,25,18,12,88,78,68,29.79,29.65,29.55,10,4,0,32,15,38,T,8,Fog-Snow,307
2012-3-3,18,8,-3,12,4,-8,88,77,66,29.98,29.88,29.74,10,6,1,24,11,29,T,5,Snow,324
2012-3-4,21,8,-5,13,8,-7,88,80,72,30.15,29.97,29.84,10,4,1,10,5,12,0.04,7,Snow,202
2012-3-5,36,20,4,28,18,1,87,77,66,30.14,29.91,29.69,10,9,5,29,15,38,T,2,,162
2012-3-6,38,35,31,30,27,25,82,76,69,29.67,29.55,29.46,10,9,4,23,13,30,0.00,1,,161
2012-3-7,32,24,16,28,18,12,85,77,68,30.10,29.87,29.63,10,9,4,29,16,32,T,6,,332
2012-3-8,35,23,11,28,17,3,88,72,56,30.56,30.17,30.01,10,7,1,33,14,38,0.03,5,Snow,284
2012-3-9,32,19,5,23,9,-1,76,61,46,30.58,30.35,29.90,10,10,10,29,15,38,0.00,2,,157
2012-3-10,50,39,28,34,28,22,82,68,53,29.86,29.83,29.80,10,10,10,25,9,31,0.00,0,,173
2012-3-11,59,45,30,47,37,27,85,72,59,29.84,29.75,29.64,10,10,10,24,14,32,0.00,1,,154
2012-3-12,56,46,35,45,39,28,92,68,43,29.87,29.62,29.55,10,7,2,31,11,38,0.30,6,Rain,199
2012-3-13,63,46,28,47,34,24,78,56,34,29.96,29.81,29.55,10,10,10,31,15,41,0.00,0,,158
2012-3-14,58,47,35,46,30,19,72,48,24,30.03,29.84,29.54,10,10,10,23,12,32,0.00,0,,355
2012-3-15,62,46,29,29,25,17,82,53,23,30.10,30.03,29.97,10,10,10,16,5,20,0.00,1,,149
2012-3-16,76,58,39,48,37,24,64,49,33,29.96,29.77,29.58,10,10,10,25,14,35,0.00,0,,153
2012-3-17,76,62,48,58,53,46,93,73,53,29.65,29.60,29.57,10,8,4,20,11,25,0.00,3,,168
2012-3-18,78,69,60,58,56,53,84,65,45,29.56,29.51,29.42,10,10,7,31,21,43,0.00,2,,150
2012-3-19,76,67,57,63,55,48,78,66,54,29.55,29.47,29.41,10,9,2,30,17,40,0.05,4,Rain,160
2012-3-20,58,50,42,52,33,25,86,57,28,29.95,29.82,29.56,10,10,10,17,8,23,0.00,4,Rain,266
2012-3-21,70,54,37,35,30,23,76,47,17,30.05,29.97,29.90,10,10,7,15,6,18,0.00,0,,191
2012-3-22,67,52,36,55,46,30,86,68,50,30.10,30.03,29.95,10,10,5,14,6,16,0.02,5,Rain,108
2012-3-23,68,60,51,57,54,52,93,78,63,29.95,29.91,29.87,10,5,0,12,5,24,0.01,7,Fog-Rain,110
2012-3-24,66,54,42,52,44,26,93,71,48,30.26,29.98,29.88,10,5,0,30,9,33,0.00,5,Fog,43
2012-3-25,46,37,27,26,21,16,75,58,40,30.36,30.30,30.25,10,10,10,25,15,32,0.00,2,,29
2012-3-26,53,45,36,33,27,21,65,53,40,30.25,29.96,29.57,10,10,10,38,21,53,T,5,,127
2012-3-27,56,48,40,41,35,30,76,62,47,29.90,29.60,29.34,10,10,10,43,25,55,T,6,,269
2012-3-28,47,40,33,32,31,29,89,74,58,30.13,30.03,29.88,10,10,10,17,8,21,0.00,6,,354
2012-3-29,46,40,33,40,36,30,92,77,62,30.07,29.87,29.77,10,9,0,30,11,36,0.32,7,Fog-Rain,94
2012-3-30,60,45,30,46,35,27,96,77,57,29.84,29.78,29.72,10,5,0,23,6,30,0.00,5,Fog,142
2012-3-31,72,61,49,49,43,35,86,57,27,29.70,29.66,29.63,10,7,3,26,12,33,0.00,2,,159